Regional Weather Roundup
Issued by NWS Upton, NY

Current Version | Previous Version | Graphics & Text | Print | Product List | Glossary Off
Versions: 1 2 3 4 5 6 7 8 9 10 11 12 13 14 15 16 17 18 19 20 21 22 23 24 25 26 27 28 29 30 31 32 33 34 35 36 37 38 39 40 41 42 43 44 45 46

000
ASUS41 KOKX 060605
RWROKX

REGIONAL WEATHER ROUNDUP
NATIONAL WEATHER SERVICE NEW YORK NY
100 AM EST FRI MAR 06 2015

NOTE: "FAIR" INDICATES FEW OR NO CLOUDS BELOW 12,000 FEET WITH NO
SIGNIFICANT WEATHER AND/OR OBSTRUCTIONS TO VISIBILITY.

NYZ071-072-176-178-NJZ106-104-060700-
NEW YORK CITY METRO AREA


CITY           SKY/WX    TMP DP  RH WIND       PRES   REMARKS
CENTRAL PARK     N/A     17   3  54 VRB6G17   30.41R WCI   9
LAGUARDIA APRT PTCLDY    19   5  54 NW14G22   30.40R WCI   6
KENNEDY INTL   PTCLDY    19   5  54 NW16      30.40R WCI   4
NEWARK/LIBERTY CLEAR     18   4  54 NW16G23   30.41R WCI   3
BRNX BOT. GARD   N/A    N/A N/A N/A N13       30.39S
TETERBORO      CLEAR     17   2  51 NW13      30.40R WCI   4
$$

NYZ177-179-078>081-060700-
LONG ISLAND NEW YORK

CITY           SKY/WX    TMP DP  RH WIND       PRES   REMARKS
FARMINGDALE    MOCLDY    19   6  57 N8        30.38R WCI   9
ISLIP          MOCLDY    18   5  57 N15       30.35R WCI   4
SHIRLEY        CLOUDY    18   7  62 N15       30.37R WCI   4
WESTHAMPTON    CLOUDY    19   8  62 N13       30.36R WCI   6
MONTAUK POINT    N/A     23   8  52 N12G25    30.34R WCI  12
$$

NYZ052-065-067-060700-
HUDSON VALLEY

CITY           SKY/WX    TMP DP  RH WIND       PRES   REMARKS
WHITE PLAINS   CLEAR     15   1  53 N17G23    30.36R WCI  -1
NEWBURGH       PTCLDY    12   1  62 NW12      30.40R WCI  -2
MONTGOMERY     CLEAR     13  -1  54 NW8       30.40R WCI   2
POUGHKEEPSIE   CLEAR     15  -2  46 NW7       30.43R WCI   5
ALBANY         FAIR       9  -5  53 NW9       30.44R WCI  -4
$$

NJZ001-105-106-008-010-013-015-019>022-104-060700-
NEW JERSEY

CITY           SKY/WX    TMP DP  RH WIND       PRES   REMARKS
NEWARK/LIBERTY CLEAR     18   4  54 NW16G23   30.41R WCI   3
TETERBORO      CLEAR     17   2  51 NW13      30.40R WCI   4
CALDWELL       CLEAR     15   0  51 N7        30.42R WCI   5
MORRISTOWN     CLEAR     18   1  49 N9        30.42R WCI   6
SOMERVILLE     CLEAR     15   3  59 N14       30.42R HAZE    WCI   0
SUSSEX         CLEAR     13  -2  51 VRB5      30.41R WCI   5
ANDOVER          N/A     12   0  58 VRB7      30.40R WCI   1
TRENTON        CLEAR     15   3  59 N10       30.41R WCI   2
MILLVILLE      PTCLDY    19  52 100 NW13G24   30.41R WCI   6
ATLANTIC CITY  PTCLDY    17   8  67 NW14      30.39R WCI   3
WRIGHTSTOWN    NOT AVBL
TOMS RIVER     PTCLDY    18  10  73 N10G16    30.39R WCI   6
BELMAR         PTCLDY    18   5  57 NW20      30.37R WCI   1
$$

PAZ047>061-062-071-060700-
EASTERN PENNSYLVANIA

CITY           SKY/WX    TMP DP  RH WIND       PRES   REMARKS
PHILADELPHIA   CLEAR     18   6  59 N10       30.44R WCI   6
ALLENTOWN      CLEAR     13  -1  54 NW9G20    30.43S WCI   1
SCRANTON       CLEAR      9  -3  58 N5        30.40S WCI   1
$$

CTZ002-004>006-009-010-012-RIZ004-006-007-MAZ004-011-015-060700-
SOUTHERN NEW ENGLAND
 IN CT

CITY           SKY/WX    TMP DP  RH WIND       PRES   REMARKS
BRADLEY INTL   CLEAR     17  -2  43 NW10      30.37R WCI   5
HARTFORD       CLEAR     16  -1  47 NW12G25   30.39R WCI   3
DANBURY        CLEAR     13  -4  46 N8G18     30.39R WCI   2
WTRBRY/OXFORD  PTCLDY    12  -6  44 N16G25    30.33R WCI  -4
BRIDGEPORT     PTCLDY    17   3  54 N18G24    30.38R WCI   1
MERIDEN        PTCLDY    16   0  49 NW12G18   30.39R WCI   3
NEW HAVEN      PTCLDY    17   2  51 N20G25    30.37R WCI   1
CHESTER        FAIR      18   5  57 N14G22    30.32R WCI   4
GROTON         MOCLDY    18   7  62 N15G22    30.34R WCI   4
WILLIMANTIC    PTCLDY    18   2  49 NW9       30.34R WCI   7

 IN RI

CITY           SKY/WX    TMP DP  RH WIND       PRES   REMARKS
PROVIDENCE     MOCLDY    18   2  49 N15       30.33R WCI   4
BLOCK ISLAND   CLOUDY    21   7  53 N14G25    30.29R WCI   8
WESTERLY       MOCLDY    19   7  59 N12       30.33R WCI   7

 IN MA

CITY           SKY/WX    TMP DP  RH WIND       PRES   REMARKS
BOSTON         PTCLDY    16  -5  39 NW15G22   30.36R WCI   1
WORCESTER      CLEAR     12  -6  44 NW13      30.27R WCI  -3
WESTFIELD      CLEAR     14  -2  49 NW8       30.37R WCI   3
PROVINCETOWN   CLOUDY    21   9  58 N22G28    30.31R WCI   5
NANTUCKET      CLOUDY    22  10  60 N20       30.26R WCI   7
$$

ANZ330-335-338-340-345-350-353-355-060700-
COASTAL MARINE OBSERVATIONS


STATION/POSITION TIME  SKY/WX   TEMP    WIND        PRES    VSBY  WAVE
                                AIR SEA DIR/SP/G                  HT/PER
                 (UTC)          (F)     (DEG/KT/KT) (MB)    (MI)  (FT/S)
NY HARB ENTRANCE 0600            23 38  330/ 21/ 27 1028.1          4/ 4
4S FIRE IS       NOT AVBL
20S FIRE ISLAND  0500               36              1027.5          4/ 5
23SW MTP         0600                                 N/A           4/ 4
HUDSON CANYON    NOT AVBL
EXECUTION ROCKS  NOT AVBL
WESTERN LI SOUND NOT AVBL
CENTRAL LI SOUND NOT AVBL
EASTERN LI SOUND NOT AVBL
ROBBINS REEF     0600            19     330/ 14/ 18 1028.2
$$


>>>>>>>>>>>>>>>>>>>>>>>>>>>> KEY <<<<<<<<<<<<<<<<<<<<<<<<<<<
>                                                          <
>     SKY/WX - SKY CONDITION/PRESENT WEATHER               <
>     TMP    - TEMPERATURE IN FAHRENHEIT                   <
>     DP     - DEWPOINT IN FAHRENHEIT                      <
>     RH     - RELATIVE HUMIDITY IN PERCENT                <
>     WIND   - DIRECTION AND SPEED IN MPH                  <
>     PRES   - MEAN SEA LEVEL PRESSURE IN INCHES OF HG     <
>     WCI    - WIND CHILL INDEX                            <
>     VSB    - VISIBILITY IN MILES                         <
>     HX     - HEAT INDEX                                  <
>     TC     - TEMPERATURE IN CELSIUS                      <
>     VRB    - VARIABLE WIND DIRECTION                     <
>                                                          <
>>>>>>>>>>>>>>>>>>>>>>>>>>>> KEY <<<<<<<<<<<<<<<<<<<<<<<<<<<





USA.gov is the U.S. government's official web portal to all federal, state and local government web resources and services.